Location: Horowhenua
(40.7500°S, 175.3333°E)
Time: 05:10:03
(UTC+00:00)

FENGYUN 3A - Pass Details

Date: 28 January 2023
Orbit: 824 x 835 km, 98.5° (Epoch: 01 April)

Event Time Altitude Azimuth Distance (km) Brightness Sun altitude
Exits shadow 14:59:23 45° 300° (WNW) 1,137 3.9 -21.8°
Maximum altitude 15:00:02 47° 279° (W) 1,105 4.0 -21.8°
Drops below altitude 10° 15:05:19 10° 205° (SSW) 2,477 6.4 -21.1°
Sets 15:07:48 0° 199° (SSW) 3,420 7.3 -20.8°
